DELTA 1 DEB, 7155

Orbit data source: Space-Track

DELTA 1 DEB, 7155 is space debris in SSO originally from a launch on Tue, 06 Nov 1973 UTC launched from the Air Force Western Test Range (AFWTR). Debris objects in space refer to the collection of defunct objects orbiting the Earth. Examples of debris include non-operational satellites, rocket bodies, and fragments generated from explosions, collisions, or faulty payload assembly.

Loading next visibility...
Identifier
7155, 1973-086DU
Orbit
SSO
Country
Flag of USUS
Related business
Manufacturer
Unknown
Mission
Spacecraft
Bus & Motor
Unknown
Mass
Unknown
Launch date (UTC)
1973-11-06 (52 years ago)
Launch vehicle
Unknown
Launch site
Air Force Western Test Range (AFWTR)
Object type
Payload
Rocket body
Debris
Shape & HBR
Unknown shape, 0.1 m
Radar Cross Section
Small (<0.1 m²)

Expand to show TLE details & history
Last TLE update: 2 days ago

TLE from 2 days ago
0 DELTA 1 DEB
1 07155U 73086DU  26122.69043096  .00000015  00000-0  44978-3 0  9993
2 07155 102.3724  34.6732 0122354 240.6466 147.9775 12.40398231370237
Epoch: 2026-05-02T16:34Z
TLE epoch observation values (Epoch: 2026-05-02T16:34:13.234Z)
Latitude
28.65549°
Longitude
-81.33809°
Altitude
1,590.248 km
Speed
7.039 km/s
True Right ascension
01h 51m 17s
True Declination
28° 31' 34"
Sunlit
Object was in daylight at epoch
Visualization orbit readout
Latitude
Unknown
Longitude
Unknown
Altitude
Unknown
Speed
Unknown
Apparent Right ascension
Unknown
Apparent Declination
Unknown
Sunlit
N/A
Visualization observer readout
Local Sidereal Time
01:35:55
Azimuth
Unknown
Elevation
Unknown
Doppler factor
Unknown
Orbital elements
Apogee altitude
1,598.934 km
Perigee altitude
1,406.089 km
Semi-major axis
7,880.649 km
Eccentricity
0.01224
Inclination
102.3724°
RAAN
34.6732°
Arg. of periapsis
240.6466°
True anomaly
148.71141°
Mean anomaly
147.9775°
Eccentric anomaly
148.3454°
Mean motion
3.10242 °/min
Orbital period
116.04 mins
BSTAR
0.00044978
Loading maneuver chart data...
Computing Atmospheric mass density...
Loading historical data...
Loading historical data...
Loading historical data...
Loading historical data...
Loading historical data...
Loading historical data...
Loading historical data...

Documentation

Showing up to 5 results
|